Location: České Budějovice
(48.9757°N, 14.4803°E)
Time: 07:16:00
(UTC+02:00)

ISS - Visible Passes

Search period start: 27 May 2019 00:00
Search period end: 06 June 2019 00:00
Orbit: 408 x 418 km, 51.6° (Epoch: 27 May)

Date Brightness Start Highest point End Pass type
(mag) Time Alt. Az. Time Alt. Az. Time Alt. Az.
27 May -3.1 00:14:37 10° WNW 00:17:13 42° WSW 00:17:13 42° WSW visible
27 May -3.0 21:48:23 10° WNW 21:51:41 52° N 21:54:58 10° E visible
27 May -3.9 23:25:08 10° WNW 23:28:28 73° SSW 23:29:19 46° SE visible
28 May -3.8 22:35:39 10° WNW 22:39:01 83° NNE 22:41:27 17° ESE visible
29 May -1.9 00:12:37 10° W 00:14:16 20° WSW 00:14:16 20° WSW visible
29 May -3.4 21:46:10 10° WNW 21:49:30 66° NNE 21:52:50 10° E visible
29 May -3.1 23:22:57 10° WNW 23:26:06 37° SSW 23:26:24 36° SSW visible
30 May -3.6 22:33:23 10° WNW 22:36:40 56° SSW 22:38:34 22° SE visible
31 May -3.8 21:43:51 10° WNW 21:47:12 81° SSW 21:50:33 10° ESE visible
31 May -2.0 23:21:06 10° W 23:23:30 18° SW 23:23:35 18° SW visible
01 Jun -2.5 22:31:13 10° W 22:34:09 28° SW 22:35:48 18° S visible
02 Jun -3.1 21:41:34 10° WNW 21:44:44 42° SSW 21:47:56 10° SE visible
03 Jun -1.4 22:29:41 10° WSW 22:31:25 13° SW 22:33:09 10° SSW visible
04 Jun -1.9 21:39:30 10° W 21:42:05 21° SW 21:44:40 10° SSE visible
